This demonstration page uses our WeatherBlox Daily Observations layout. Learn more.

Left ArrowRight Arrow

Hourly Observations for December 22, 2019

Temp ( °F °C ) Dew Point ( °F °C ) Humidity (%) Winds ( mph kmh ) Pressure ( in mb ) Visibility ( mi km ) Precip ( " mm )
12:56 am 00:56 Clear 36 2.2 23 -5 59 59 SSW 14 22 30.12 1020 10 16 0.00 0.00
1:56 am 01:56 Clear 33 0.6 22 -5.6 64 64 SSW 9 15 30.12 1020 10 16 0.00 0.00
2:56 am 02:56 Clear 32 0 22 -5.6 66 66 SW 9 15 30.12 1020 10 16 0.00 0.00
3:56 am 03:56 Clear 33 0.6 22 -5.6 64 64 SW 10 17 30.11 1020 10 16 0.00 0.00
4:56 am 04:56 Clear 30 -1.1 22 -5.6 72 72 SW 8 13 30.11 1020 10 16 0.00 0.00
5:56 am 05:56 Clear 30 -1.1 22 -5.6 72 72 SW 8 13 30.11 1020 10 16 0.00 0.00
6:56 am 06:56 Clear 28 -2.2 22 -5.6 78 78 SSW 10 17 30.12 1020 10 16 0.00 0.00
7:56 am 07:56 Clear 28 -2.2 21 -6.1 75 75 SW 10 17 30.12 1020 10 16 0.00 0.00
8:56 am 08:56 Sunny 32 0 22 -5.6 66 66 SW 8 13 30.11 1020 10 16 0.00 0.00
9:56 am 09:56 Sunny 36 2.2 22 -5.6 57 57 WSW 6 9 30.12 1020 10 16 0.00 0.00
10:56 am 10:56 Sunny 42 5.6 26 -3.3 53 53 SSW 9 15 30.10 1019 10 16 0.00 0.00
11:56 am 11:56 Sunny 49 9.4 28 -2.2 44 44 SSW 9 15 30.07 1018 10 16 0.00 0.00
12:56 pm 12:56 Sunny 56 13.3 25 -3.9 30 30 SW 10 17 30.04 1017 10 16 0.00 0.00
1:56 pm 13:56 Sunny 61 16.1 25 -3.9 25 25 SSW 14 22 30.01 1016 10 16 0.00 0.00
2:56 pm 14:56 Sunny 62 16.7 26 -3.3 25 25 SSW 12 19 30.00 1016 10 16 0.00 0.00
3:56 pm 15:56 Sunny 56 13.3 26 -3.3 32 32 SSW 9 15 30.01 1016 10 16 0.00 0.00
4:56 pm 16:56 Sunny 46 7.8 26 -3.3 46 46 S 9 15 30.03 1017 10 16 0.00 0.00
5:56 pm 17:56 Clear 41 5 25 -3.9 53 53 SSW 9 15 30.03 1017 10 16 0.00 0.00
6:56 pm 18:56 Clear 42 5.6 24 -4.4 49 49 SSW 9 15 30.04 1017 10 16 0.00 0.00
7:56 pm 19:56 Clear 40 4.4 24 -4.4 53 53 S 8 13 30.04 1017 10 16 0.00 0.00
8:56 pm 20:56 Clear 39 3.9 25 -3.9 57 57 SSW 13 20 30.02 1017 10 16 0.00 0.00
9:56 pm 21:56 Clear 42 5.6 23 -5 47 47 SW 10 17 30.02 1017 10 16 0.00 0.00
10:56 pm 22:56 Clear 39 3.9 23 -5 53 53 SSW 8 13 30.01 1016 10 16 0.00 0.00
11:56 pm 23:56 Clear 35 1.7 23 -5 61 61 SW 7 11 30.01 1016 10 16 0.00 0.00

Powered by AerisWeather